Location: Hermaringen
(48.5952°N, 10.2585°E)
Time: 03:18:23
(UTC+00:00)

Cosmos 1833 Rocket - Pass Details

Date: 18 November 2025
Orbit: 829 x 840 km, 71.0° (Epoch: 04 December)

Event Time Altitude Azimuth Distance (km) Brightness Sun altitude
Rises 16:22:26 0° 328° (NNW) 3,406 6.0 -7.8°
Reaches altitude 10° 16:24:56 10° 324° (NW) 2,467 5.3 -8.2°
Maximum altitude 16:30:25 53° 249° (WSW) 1,029 3.7 -9.1°
Drops below altitude 10° 16:35:51 10° 174° (S) 2,448 5.3 -9.9°
Sets 16:38:20 0° 170° (S) 3,377 5.9 -10.3°
